Weather History for Big Bear City, CA

Change the Weather History Date:

Wednesday, April 9, 2014

  Actual Average (KBUO) Record (KBUO)
Temperature  
Mean Temperature 48 °F -  
Max Temperature 68 °F 59 °F 69 °F (1998)
Min Temperature 28 °F 39 °F 33 °F (2001)
Degree Days  
Heating Degree Days 17    
Moisture  
Dew Point 5 °F    
Average Humidity 27    
Maximum Humidity 60    
Minimum Humidity 4    
Precipitation  
Precipitation 0.00 in - - ()
Sea Level Pressure  
Sea Level Pressure 30.30 in    
Wind  
Wind Speed 3 mph (WSW)    
Max Wind Speed 15 mph    
Max Gust Speed 22 mph    
Visibility 10 miles    
Events      
Averages and records for this station are not official NWS values.
T = Trace of Precipitation, MM = Missing Value Source: NWS Daily Summary

Daily Weather History Graph

Daily Weather History Graph

Search for Another Location

Airport:

Trip Planner

Search our weather history database for the weather conditions in past years. The results will help you decide how hot, cold, wet, or windy it might be!

Date:

Astronomy

Apr. 09, 2014 Rise Set
Actual Time 6:23 AM PDT 7:14 PM PDT
Civil Twilight 5:58 AM PDT 7:40 PM PDT
Nautical Twilight 5:28 AM PDT 8:10 PM PDT
Astronomical Twilight 4:57 AM PDT 8:41 PM PDT
Moon 2:19 PM PDT (4/9) 3:02 AM PDT (4/9)
Length of Visible Light 13h 41m
Length of Day
12h 50m
Waxing Gibbous, 72% of the Moon is Illuminated
Apr 9
Waxing Gibbous
Apr 15
Full
Apr 22
Last Quarter
Apr 28
New
May 6
First Quarter

Hourly Weather History & Observations

Time (PDT) Temp. Windchill Dew Point Humidity Pressure Visibility Wind Dir Wind Speed Gust Speed Precip Events Conditions
12:15 AM 32.0 °F - 12.2 °F 44% 30.36 in 10.0 mi Calm Calm - N/A   Clear
12:35 AM 32.0 °F - 10.4 °F 41% 30.35 in 10.0 mi Calm Calm - N/A   Clear
12:55 AM 32.0 °F - 10.4 °F 41% 30.35 in 10.0 mi Calm Calm - N/A   Clear
1:15 AM 32.0 °F - 10.4 °F 41% 30.34 in 10.0 mi Calm Calm - N/A   Clear
1:35 AM 30.2 °F - 8.6 °F 40% 30.34 in 10.0 mi Calm Calm - N/A   Clear
1:55 AM 30.2 °F - 10.4 °F 44% 30.33 in 10.0 mi Calm Calm - N/A   Clear
2:15 AM 30.2 °F - 12.2 °F 47% 30.33 in 10.0 mi Calm Calm - N/A   Clear
2:35 AM 30.2 °F - 12.2 °F 47% 30.32 in 10.0 mi Calm Calm - N/A   Clear
2:55 AM 30.2 °F - 12.2 °F 47% 30.32 in 10.0 mi Calm Calm - N/A   Clear
3:15 AM 30.2 °F - 12.2 °F 47% 30.31 in 10.0 mi Calm Calm - N/A   Clear
3:35 AM 30.2 °F - 12.2 °F 47% 30.31 in 10.0 mi Calm Calm - N/A   Clear
3:55 AM 30.2 °F - 12.2 °F 47% 30.31 in 10.0 mi Calm Calm - N/A   Clear
4:15 AM 30.2 °F - 12.2 °F 47% 30.30 in 10.0 mi Calm Calm - N/A   Clear
4:35 AM 30.2 °F 26.7 °F 14.0 °F 51% 30.30 in 10.0 mi West 3.5 mph - N/A   Clear
4:55 AM 30.2 °F 26.7 °F 17.6 °F 60% 30.30 in 10.0 mi West 3.5 mph - N/A   Clear
5:15 AM 30.2 °F - 14.0 °F 51% 30.30 in 10.0 mi Calm Calm - N/A   Clear
5:35 AM 30.2 °F - 14.0 °F 51% 30.30 in 10.0 mi Calm Calm - N/A   Clear
5:55 AM 28.4 °F - 12.2 °F 51% 30.31 in 10.0 mi Calm Calm - N/A   Clear
6:15 AM 28.4 °F - 14.0 °F 55% 30.31 in 10.0 mi Calm Calm - N/A   Clear
6:35 AM 28.4 °F - 10.4 °F 47% 30.31 in 10.0 mi Calm Calm - N/A   Clear
6:55 AM 28.4 °F - 12.2 °F 51% 30.31 in 10.0 mi Calm Calm - N/A   Clear
7:15 AM 30.2 °F - 14.0 °F 51% 30.32 in 10.0 mi Calm Calm - N/A   Clear
7:35 AM 32.0 °F 27.5 °F 19.4 °F 60% 30.32 in 10.0 mi West 4.6 mph - N/A   Clear
7:55 AM 33.8 °F - 17.6 °F 52% 30.32 in 10.0 mi Calm Calm - N/A   Clear
8:15 AM 37.4 °F - 23.0 °F 56% 30.32 in 10.0 mi Calm Calm - N/A   Clear
8:35 AM 41.0 °F 39.0 °F 24.8 °F 53% 30.32 in 10.0 mi West 3.5 mph - N/A   Clear
8:55 AM 44.6 °F 42.2 °F 19.4 °F 37% 30.32 in 10.0 mi West 4.6 mph - N/A   Clear
9:15 AM 48.2 °F - 23.0 °F 37% 30.32 in 10.0 mi West 4.6 mph - N/A   Clear
9:35 AM 53.6 °F - 21.2 °F 28% 30.32 in 10.0 mi West 4.6 mph - N/A   Clear
9:55 AM 59.0 °F - 1.4 °F 10% 30.32 in 10.0 mi West 6.9 mph - N/A   Clear
10:15 AM 60.8 °F - -0.4 °F 8% 30.32 in 10.0 mi West 9.2 mph - N/A   Clear
10:35 AM 62.6 °F - 1.4 °F 9% 30.33 in 10.0 mi West 9.2 mph - N/A   Clear
10:55 AM 64.4 °F - -4.0 °F 6% 30.33 in 10.0 mi SW 5.8 mph - N/A   Clear
11:15 AM 64.4 °F - -5.8 °F 6% 30.33 in 10.0 mi WSW 8.1 mph - N/A   Clear
11:35 AM 64.4 °F - -9.4 °F 5% 30.33 in 10.0 mi SW 6.9 mph - N/A   Clear
11:55 AM 66.2 °F - -5.8 °F 5% 30.33 in 10.0 mi West 12.7 mph 18.4 mph N/A   Clear
12:15 PM 66.2 °F - -7.6 °F 5% 30.32 in 10.0 mi West 10.4 mph - N/A   Clear
12:35 PM 68.0 °F - -4.0 °F 6% 30.32 in 10.0 mi WSW 11.5 mph 16.1 mph N/A   Clear
12:55 PM 66.2 °F - -13.0 °F 4% 30.32 in 10.0 mi West 12.7 mph 17.3 mph N/A   Clear
1:15 PM 64.4 °F - -11.2 °F 5% 30.31 in 10.0 mi WSW 5.8 mph - N/A   Clear
1:35 PM 64.4 °F - -13.0 °F 4% 30.31 in 10.0 mi West 15.0 mph 20.7 mph N/A   Clear
1:55 PM 66.2 °F - -7.6 °F 5% 30.30 in 10.0 mi West 12.7 mph 16.1 mph N/A   Clear
2:15 PM 66.2 °F - -13.0 °F 4% 30.30 in 10.0 mi West 15.0 mph 18.4 mph N/A   Clear
2:35 PM 66.2 °F - -9.4 °F 5% 30.29 in 10.0 mi West 13.8 mph - N/A   Clear
2:55 PM 68.0 °F - -9.4 °F 4% 30.29 in 10.0 mi WSW 15.0 mph 20.7 mph N/A   Clear
3:15 PM 66.2 °F - -14.8 °F 4% 30.28 in 10.0 mi West 12.7 mph 21.9 mph N/A   Clear
3:35 PM 66.2 °F - -14.8 °F 4% 30.27 in 10.0 mi SSW 9.2 mph 18.4 mph N/A   Clear
3:55 PM 66.2 °F - -14.8 °F 4% 30.27 in 10.0 mi SW 6.9 mph 17.3 mph N/A   Clear
4:15 PM 64.4 °F - -14.8 °F 4% 30.27 in 10.0 mi SW 5.8 mph 17.3 mph N/A   Clear
4:35 PM 64.4 °F - -13.0 °F 4% 30.26 in 10.0 mi SSW 11.5 mph 18.4 mph N/A   Clear
4:55 PM 64.4 °F - -9.4 °F 5% 30.26 in 10.0 mi SW 8.1 mph 20.7 mph N/A   Clear
5:15 PM 64.4 °F - -4.0 °F 6% 30.25 in 10.0 mi WSW 8.1 mph - N/A   Clear
5:35 PM 62.6 °F - -4.0 °F 7% 30.25 in 10.0 mi SW 3.5 mph - N/A   Clear
5:55 PM 62.6 °F - -4.0 °F 7% 30.25 in 10.0 mi SW 9.2 mph - N/A   Clear
6:15 PM 60.8 °F - -4.0 °F 7% 30.25 in 10.0 mi SW 6.9 mph - N/A   Clear
6:35 PM 59.0 °F - -2.2 °F 8% 30.25 in 10.0 mi WSW 4.6 mph - N/A   Clear
6:55 PM 57.2 °F - 1.4 °F 10% 30.25 in 10.0 mi West 8.1 mph - N/A   Clear
7:15 PM 55.4 °F - 5.0 °F 13% 30.25 in 10.0 mi WSW 5.8 mph - N/A   Clear
7:35 PM 53.6 °F - 8.6 °F 16% 30.25 in 10.0 mi West 8.1 mph - N/A   Clear
7:55 PM 50.0 °F - 8.6 °F 19% 30.26 in 10.0 mi SW 3.5 mph - N/A   Clear
8:15 PM 46.4 °F 45.2 °F 10.4 °F 23% 30.27 in 10.0 mi SSW 3.5 mph - N/A   Clear
8:35 PM 44.6 °F 43.1 °F 8.6 °F 23% 30.27 in 10.0 mi SSW 3.5 mph - N/A   Clear
8:55 PM 44.6 °F - 10.4 °F 25% 30.27 in 10.0 mi Calm Calm - N/A   Clear
9:15 PM 42.8 °F - 12.2 °F 29% 30.28 in 10.0 mi Calm Calm - N/A   Clear
9:35 PM 41.0 °F - 12.2 °F 31% 30.28 in 10.0 mi Calm Calm - N/A   Clear
9:55 PM 37.4 °F - 12.2 °F 36% 30.28 in 10.0 mi Calm Calm - N/A   Clear
10:15 PM 37.4 °F - 10.4 °F 33% 30.28 in 10.0 mi Calm Calm - N/A   Clear
10:35 PM 37.4 °F - 12.2 °F 36% 30.27 in 10.0 mi Calm Calm - N/A   Clear
10:55 PM 35.6 °F - 10.4 °F 35% 30.27 in 10.0 mi Calm Calm - N/A   Clear
11:15 PM 37.4 °F - 12.2 °F 36% 30.27 in 10.0 mi Calm Calm - N/A   Clear
11:35 PM 37.4 °F - 12.2 °F 36% 30.26 in 10.0 mi Calm Calm - N/A   Clear
11:55 PM 35.6 °F 29.9 °F 12.2 °F 38% 30.26 in 10.0 mi WSW 6.9 mph - N/A   Clear